IK5SRE Weather Reports


time (UTC)temp
F
wind
direction
speed
knots
gust
knots
rain 1hr
in
rain 24hr
in
rain mn
in
humidity
%
barometer
mb
20260906120037 93 135 3.5 6.1 0.00 0.00 0.00 48 1019.7
20260906115017 94 180 2.6 7.8 0.00 0.00 0.00 47 1019.7
20260906114017 94 158 0.9 4.3 0.00 0.00 0.00 51 1019.8
20260906113017 92 113 2.6 6.1 0.00 0.00 0.00 49 1019.8
20260906112017 91 135 1.7 4.3 0.00 0.00 0.00 52 1019.9
20260906111017 91 113 2.6 5.2 0.00 0.00 0.00 53 1019.9
20260906110017 91 180 0.9 3.5 0.00 0.00 0.00 53 1020.0
20260906105017 90 0.0 1.7 0.00 0.00 0.00 54 1020.1
20260906104017 89 135 2.6 6.1 0.00 0.00 0.00 54 1020.2
20260906103017 89 158 2.6 5.2 0.00 0.00 0.00 55 1020.3
20260906102017 88 158 1.7 6.1 0.00 0.00 0.00 59 1020.3
20260906101017 89 158 1.7 6.1 0.00 0.00 0.00 58 1020.4
20260906100017 88 113 1.7 4.3 0.00 0.00 0.00 60 1020.5
20260906095017 87 203 0.9 3.5 0.00 0.00 0.00 59 1020.5
20260906094017 86 180 1.7 4.3 0.00 0.00 0.00 60 1020.4
20260906093017 86 180 1.7 5.2 0.00 0.00 0.00 62 1020.5
20260906092037 85 180 2.6 5.2 0.00 0.00 0.00 62 1020.5
20260906091017 86 180 0.9 4.3 0.00 0.00 0.00 63 1020.6
20260906090017 84 180 2.6 5.2 0.00 0.00 0.00 63 1020.6
20260906085017 84 158 1.7 4.3 0.00 0.00 0.00 67 1020.6
20260906084017 83 203 1.7 5.2 0.00 0.00 0.00 70 1020.5
20260906083017 83 180 1.7 5.2 0.00 0.00 0.00 70 1020.5
20260906082017 83 0.0 3.5 0.00 0.00 0.00 70 1020.5
20260906081017 82 158 1.7 4.3 0.00 0.00 0.00 72 1020.4
20260906080017 81 180 0.9 3.5 0.00 0.00 0.00 74 1020.4
20260906075017 80 180 1.7 4.3 0.00 0.00 0.00 74 1020.4
20260906074017 80 180 1.7 4.3 0.00 0.00 0.00 75 1020.3
20260906073037 79 180 0.9 4.3 0.00 0.00 0.00 77 1020.2
20260906072017 78 270 1.7 3.5 0.00 0.00 0.00 77 1020.1
20260906071017 78 225 0.9 3.5 0.00 0.00 0.00 77 1020.1
20260906070017 77 203 1.7 4.3 0.00 0.00 0.00 81 1020.0
20260906065017 76 180 1.7 6.1 0.00 0.00 0.00 82 1020.0
20260906064017 76 0.0 1.7 0.00 0.00 0.00 83 1019.9
20260906063017 75 248 0.9 3.5 0.00 0.00 0.00 83 1019.9
20260906062017 74 0.0 2.6 0.00 0.00 0.00 86 1019.8
20260906061017 73 0.0 1.7 0.00 0.00 0.00 87 1019.7
20260906060017 72 225 1.7 4.3 0.00 0.00 0.00 87 1019.7
20260906055017 72 225 1.7 4.3 0.00 0.00 0.00 87 1019.5
20260906054017 72 225 1.7 4.3 0.00 0.00 0.00 87 1019.6
20260906053057 72 293 1.7 3.5 0.00 0.00 0.00 88 1019.4
20260906052017 71 0.0 1.7 0.00 0.00 0.00 89 1019.4
20260906051017 71 0.0 0.0 0.00 0.00 0.00 89 1019.3
20260906050017 71 0.0 1.7 0.00 0.00 0.00 89 1019.3
20260906045017 71 0.0 1.7 0.00 0.00 0.00 89 1019.3
20260906044017 71 293 1.7 4.3 0.00 0.00 0.00 89 1019.2
20260906043017 71 270 0.9 2.6 0.00 0.00 0.00 89 1019.2
20260906042017 71 270 0.9 2.6 0.00 0.00 0.00 89 1019.2
20260906041057 71 293 1.7 2.6 0.00 0.00 0.00 89 1019.3
20260906040017 71 0.0 0.0 0.00 0.00 0.00 89 1019.2
20260906035037 71 0.0 0.0 0.00 0.00 0.00 89 1019.1
20260906034017 71 0.0 0.0 0.00 0.00 0.00 88 1019.0
20260906033017 71 0.0 0.0 0.00 0.00 0.00 88 1019.0
20260906032017 72 0.0 0.0 0.00 0.00 0.00 88 1019.0
20260906031037 72 0.0 0.0 0.00 0.00 0.00 88 1019.0
20260906030017 72 0.0 2.6 0.00 0.00 0.00 88 1018.8
20260906025017 72 0.0 1.7 0.00 0.00 0.00 88 1018.9
20260906024057 72 0.0 0.0 0.00 0.00 0.00 89 1018.9
20260906023017 72 0 0.9 3.5 0.00 0.00 0.00 89 1019.0
20260906022017 71 0.0 0.0 0.00 0.00 0.00 89 1019.0
20260906021037 71 0.0 1.7 0.00 0.00 0.00 89 1019.0
20260906020017 71 0.0 0.0 0.00 0.00 0.00 88 1019.0
20260906015017 72 0.0 0.0 0.00 0.00 0.00 87 1019.0
20260906014017 72 0.0 0.0 0.00 0.00 0.00 87 1019.0
20260906013017 73 0.0 1.7 0.00 0.00 0.00 86 1018.9
20260906012017 73 0 0.9 2.6 0.00 0.00 0.00 87 1018.9
20260906011017 73 23 1.7 3.5 0.00 0.00 0.00 86 1019.0
20260906010017 73 293 1.7 3.5 0.00 0.00 0.00 86 1018.9
20260906005017 73 293 0.9 3.5 0.00 0.00 0.00 86 1018.9
20260906004017 73 293 1.7 3.5 0.00 0.00 0.00 86 1018.9
20260906003017 73 270 0.9 3.5 0.00 0.00 0.00 86 1018.9
20260906002017 74 293 0.9 2.6 0.00 0.00 0.00 85 1018.9
20260906001017 74 293 0.9 3.5 0.00 0.00 0.00 85 1019.0
20260906000017 74 293 0.9 2.6 0.00 0.00 0.00 85 1019.0
20260905235017 74 293 0.9 2.6 0.00 0.00 0.00 85 1019.0
20260905234017 74 293 0.9 3.5 0.00 0.00 0.00 85 1019.0
20260905233017 74 293 0.9 2.6 0.00 0.00 0.00 85 1019.0
20260905232017 74 23 0.9 2.6 0.00 0.00 0.00 84 1019.0
20260905231017 74 293 0.9 1.7 0.00 0.00 0.00 84 1019.1
20260905230037 75 293 1.7 3.5 0.00 0.00 0.00 83 1019.1
20260905225017 75 270 0.9 2.6 0.00 0.00 0.00 83 1019.1
20260905224017 75 23 1.7 4.3 0.00 0.00 0.00 84 1019.1
20260905223017 75 293 1.7 3.5 0.00 0.00 0.00 84 1019.0
20260905222017 75 293 0.9 2.6 0.00 0.00 0.00 83 1018.9
20260905221017 75 293 0.9 3.5 0.00 0.00 0.00 83 1018.9
20260905220017 75 293 1.7 3.5 0.00 0.00 0.00 83 1018.9
20260905215037 75 0 1.7 4.3 0.00 0.00 0.00 82 1018.8
20260905214017 75 0 1.7 3.5 0.00 0.00 0.00 83 1018.8
20260905213017 75 23 0.9 3.5 0.00 0.00 0.00 83 1018.7
20260905212017 76 0 2.6 5.2 0.00 0.00 0.00 82 1018.7
20260905211017 76 0 1.7 3.5 0.00 0.00 0.00 82 1018.7
20260905210017 75 23 0.9 3.5 0.00 0.00 0.00 83 1018.7
20260905205517 75 293 1.7 3.5 0.00 0.00 0.00 83 1018.5
20260905204517 76 0.0 1.7 0.00 0.00 0.00 82 1018.5
20260905203517 76 0 0.9 2.6 0.00 0.00 0.00 82 1018.4
20260905202517 75 293 1.7 2.6 0.00 0.00 0.00 82 1018.4
20260905201517 75 0.0 1.7 0.00 0.00 0.00 82 1018.4
20260905200517 76 0.0 1.7 0.00 0.00 0.00 81 1018.4
20260905195537 76 293 0.9 2.6 0.00 0.00 0.00 80 1018.3
20260905194517 77 0.0 0.0 0.00 0.00 0.00 77 1018.2
20260905193517 77 293 0.9 2.6 0.00 0.00 0.00 75 1018.2
20260905192517 78 293 0.9 3.5 0.00 0.00 0.00 72 1018.0
20260905191557 78 293 0.9 2.6 0.00 0.00 0.00 72 1017.9
20260905190537 78 293 0.9 2.6 0.00 0.00 0.00 71 1017.8
20260905185517 78 0.0 1.7 0.00 0.00 0.00 70 1017.7
20260905184517 79 293 1.7 2.6 0.00 0.00 0.00 69 1017.6
20260905183517 79 293 1.7 3.5 0.00 0.00 0.00 69 1017.5
20260905182517 79 270 1.7 4.3 0.00 0.00 0.00 68 1017.4
20260905181537 80 248 0.9 3.5 0.00 0.00 0.00 68 1017.3
20260905180537 80 270 1.7 4.3 0.00 0.00 0.00 67 1017.2
20260905175517 80 293 1.7 4.3 0.00 0.00 0.00 67 1017.1
20260905174517 80 270 0.9 3.5 0.00 0.00 0.00 67 1017.1
20260905173517 81 248 1.7 4.3 0.00 0.00 0.00 68 1017.1
20260905172517 81 270 0.9 3.5 0.00 0.00 0.00 69 1017.0
20260905171557 81 270 0.9 4.3 0.00 0.00 0.00 69 1017.0
20260905170537 82 270 1.7 6.1 0.00 0.00 0.00 69 1017.1
20260905165517 82 270 1.7 5.2 0.00 0.00 0.00 70 1017.0
20260905164517 83 225 1.7 5.2 0.00 0.00 0.00 71 1016.9
20260905163517 83 293 1.7 4.3 0.00 0.00 0.00 70 1016.9
20260905162517 83 270 1.7 5.2 0.00 0.00 0.00 69 1016.9
20260905161517 84 203 1.7 4.3 0.00 0.00 0.00 68 1016.9
20260905160517 85 293 1.7 7.8 0.00 0.00 0.00 66 1017.0
20260905155517 85 270 1.7 4.3 0.00 0.00 0.00 65 1017.0
20260905154517 86 248 1.7 7.0 0.00 0.00 0.00 64 1017.0
20260905153517 86 270 2.6 7.8 0.00 0.00 0.00 63 1017.0
20260905152517 87 225 1.7 6.1 0.00 0.00 0.00 62 1016.9
20260905151517 87 293 1.7 4.3 0.00 0.00 0.00 61 1016.8
20260905150517 88 293 1.7 5.2 0.00 0.00 0.00 60 1016.8
20260905145517 88 180 1.7 6.1 0.00 0.00 0.00 59 1016.8
20260905144517 88 270 2.6 7.0 0.00 0.00 0.00 57 1016.8
20260905143517 88 203 1.7 5.2 0.00 0.00 0.00 56 1017.0
20260905142517 89 180 1.7 4.3 0.00 0.00 0.00 57 1017.1
20260905141517 88 270 1.7 5.2 0.00 0.00 0.00 57 1017.1
20260905140517 89 180 1.7 7.0 0.00 0.00 0.00 58 1017.2
20260905135517 88 180 3.5 9.6 0.00 0.00 0.00 55 1017.3
20260905135017 89 180 1.7 7.8 0.00 0.00 0.00 56 1017.3
20260905134017 89 180 1.7 4.3 0.00 0.00 0.00 57 1017.5
20260905133017 89 225 2.6 6.1 0.00 0.00 0.00 56 1017.5
20260905132017 89 180 2.6 5.2 0.00 0.00 0.00 55 1017.6
20260905131017 88 248 1.7 4.3 0.00 0.00 0.00 56 1017.8
20260905130017 89 180 2.6 10.4 0.00 0.00 0.00 58 1018.0
20260905125017 88 180 2.6 7.0 0.00 0.00 0.00 56 1017.9
20260905124017 89 180 1.7 6.1 0.00 0.00 0.00 57 1018.0
20260905123017 89 180 3.5 8.7 0.00 0.00 0.00 56 1018.0
20260905122017 89 180 1.7 7.0 0.00 0.00 0.00 56 1018.1
20260905121017 88 158 2.6 7.8 0.00 0.00 0.00 56 1018.1